FW6727 Weather Reports


time (UTC)temp
C
wind
direction
speed
KPH
gust
KPH
rain 1hr
cm
rain 24hr
cm
rain mn
cm
humidity
%
barometer
mb
20260509000040 18 0 0.0 4.8 0.00 0.00 0.00 77 1014.8
20260508234537 18 0 0.0 1.6 0.00 0.00 0.00 74 1014.6
20260508233037 18 0 0.0 1.6 0.00 0.00 0.00 75 1014.6
20260508231545 18 0 0.0 4.8 0.00 0.00 0.00 73 1014.6
20260508230044 18 0 0.0 3.2 0.00 0.00 0.00 71 1014.6
20260508224542 18 137 1.6 4.8 0.00 0.00 0.00 71 1014.6
20260508223042 19 121 0.0 9.7 0.00 0.00 0.00 70 1014.5
20260508221538 20 200 0.0 4.8 0.00 0.00 0.00 69 1014.4
20260508220039 20 0 0.0 1.6 0.00 0.00 0.00 62 1014.6
20260508214545 20 0 0.0 6.4 0.00 0.00 0.00 62 1014.5
20260508213048 20 0 1.6 6.4 0.00 0.00 0.00 62 1014.5
20260508211542 20 0 0.0 6.4 0.00 0.00 0.00 60 1014.5
20260508210038 20 173 3.2 8.0 0.00 0.00 0.00 59 1014.7
20260508204537 20 248 3.2 9.7 0.00 0.00 0.00 58 1014.6
20260508203035 21 188 0.0 4.8 0.00 0.00 0.00 57 1014.8
20260508201547 20 0 1.6 12.9 0.00 0.00 0.00 57 1015.0
20260508200038 21 132 3.2 16.1 0.00 0.00 0.00 56 1015.1
20260508194537 21 138 4.8 16.1 0.00 0.00 0.00 57 1015.2
20260508193045 21 130 1.6 12.9 0.00 0.00 0.00 55 1015.5
20260508191539 21 163 1.6 9.7 0.00 0.00 0.00 55 1015.9
20260508190036 21 318 4.8 12.9 0.00 0.00 0.00 53 1015.9
20260508184540 21 256 6.4 14.5 0.00 0.00 0.00 52 1016.0
20260508183038 20 133 3.2 14.5 0.00 0.00 0.00 55 1016.4
20260508181537 21 135 6.4 16.1 0.00 0.00 0.00 54 1016.5
20260508180037 20 98 1.6 9.7 0.00 0.00 0.00 56 1016.8
20260508174539 20 124 8.0 20.9 0.00 0.00 0.00 55 1017.0
20260508173039 20 134 3.2 20.9 0.00 0.00 0.00 58 1017.3
20260508171538 20 267 4.8 16.1 0.00 0.00 0.00 57 1017.2
20260508170037 20 123 4.8 14.5 0.00 0.00 0.00 54 1017.4
20260508164544 20 267 1.6 17.7 0.00 0.00 0.00 56 1017.7
20260508163038 18 240 6.4 20.9 0.00 0.00 0.00 58 1017.9
20260508161543 19 96 3.2 17.7 0.00 0.00 0.00 58 1018.1
20260508160037 18 150 1.6 14.5 0.00 0.00 0.00 61 1018.4
20260508154537 18 101 6.4 16.1 0.00 0.00 0.00 58 1018.3
20260508153037 18 95 4.8 12.9 0.00 0.00 0.00 59 1018.7
20260508151542 18 86 3.2 14.5 0.00 0.00 0.00 60 1018.7
20260508150040 18 98 6.4 16.1 0.00 0.00 0.00 60 1018.6
20260508144538 17 126 3.2 12.9 0.00 0.00 0.00 65 1018.6
20260508143036 17 99 6.4 12.9 0.00 0.00 0.00 66 1018.6
20260508141537 17 110 4.8 12.9 0.00 0.00 0.00 64 1018.6
20260508140037 16 115 1.6 11.3 0.00 0.00 0.00 69 1018.9
20260508134536 15 12 0.0 4.8 0.00 0.05 0.00 80 1019.2
20260508133037 15 0 1.6 6.4 0.00 0.05 0.00 83 1019.2
20260508131541 14 349 0.0 4.8 0.00 0.05 0.00 84 1019.1
20260508130036 13 0 0.0 0.0 0.00 0.05 0.00 90 1019.0
20260508124535 13 0 0.0 3.2 0.00 0.23 0.00 92 1018.8
20260508123040 12 17 0.0 3.2 0.00 0.23 0.00 94 1018.5
20260508121542 11 18 0.0 3.2 0.00 0.23 0.00 95 1018.2
20260508120042 10 0 0.0 4.8 0.00 0.23 0.00 96 1018.1
20260508114535 8 0 0.0 0.0 0.00 0.41 0.00 95 1018.0
20260508113040 8 0 0.0 0.0 0.00 0.41 0.00 95 1017.7
20260508111557 8 0 0.0 0.0 0.00 0.41 0.00 95 1017.5
20260508110036 8 0 0.0 0.0 0.00 0.41 0.00 95 1017.0
20260508104538 8 0 0.0 0.0 0.00 0.71 0.00 95 1016.8
20260508103038 8 0 0.0 0.0 0.00 0.71 0.00 95 1016.5
20260508101535 8 0 0.0 0.0 0.00 0.71 0.00 95 1016.3
20260508100034 8 26 0.0 4.8 0.00 0.71 0.00 94 1016.0
20260508094537 8 28 0.0 3.2 0.00 0.79 0.00 94 1015.9
20260508093036 8 0 0.0 0.0 0.00 0.79 0.00 94 1015.8
20260508091544 8 0 0.0 0.0 0.00 0.79 0.00 94 1015.7
20260508090040 9 0 0.0 0.0 0.00 0.79 0.00 94 1015.6
20260508084549 9 0 0.0 0.0 0.00 0.91 0.00 94 1015.4
20260508083049 9 0 0.0 0.0 0.00 0.91 0.00 94 1015.3
20260508081544 9 0 0.0 0.0 0.00 0.91 0.00 94 1015.4
20260508080035 9 0 0.0 0.0 0.00 0.91 0.00 94 1015.3
20260508074538 9 0 0.0 1.6 0.00 1.52 0.00 94 1015.3
20260508073036 10 296 1.6 3.2 0.00 1.52 0.00 94 1015.3
20260508071538 10 0 0.0 4.8 0.00 1.52 0.00 93 1015.4
20260508070038 10 300 1.6 3.2 0.00 1.52 0.00 93 1015.3
20260508064538 10 0 0.0 0.0 0.00 1.70 0.00 93 1015.3
20260508063036 10 0 0.0 1.6 0.00 1.70 0.00 93 1015.2
20260508061541 10 299 1.6 3.2 0.00 1.70 0.00 93 1015.2
20260508060042 10 299 0.0 3.2 0.00 1.70 0.00 93 1015.3
20260508054543 11 0 0.0 1.6 0.00 2.08 0.00 92 1015.2
20260508053035 11 300 0.0 3.2 0.00 2.08 0.00 92 1015.3
20260508051538 11 300 1.6 4.8 0.00 2.08 0.00 92 1015.3
20260508050036 11 0 0.0 0.0 0.00 2.08 0.00 92 1015.3
20260508044536 11 0 0.0 0.0 0.00 2.57 0.00 91 1015.3
20260508043040 12 0 0.0 0.0 0.00 2.57 0.00 91 1015.1
20260508041536 12 0 0.0 0.0 0.00 2.57 0.00 90 1015.0
20260508040037 12 0 0.0 0.0 0.00 2.57 0.00 89 1014.9
20260508034538 12 0 0.0 0.0 0.00 2.57 2.57 88 1014.7
20260508033037 13 0 0.0 3.2 0.00 2.57 2.57 86 1014.9
20260508031536 13 320 0.0 4.8 0.00 2.57 2.57 85 1014.9
20260508030036 14 0 0.0 3.2 0.00 2.57 2.57 83 1014.5
20260508024535 15 281 1.6 4.8 0.00 2.59 2.57 81 1014.4
20260508023036 15 280 3.2 6.4 0.00 2.59 2.57 78 1014.3
20260508021542 16 0 0.0 4.8 0.00 2.59 2.57 78 1013.9
20260508020039 16 316 1.6 3.2 0.00 2.59 2.57 75 1014.0
20260508014535 16 315 1.6 6.4 0.00 2.74 2.57 75 1013.7
20260508013037 16 282 4.8 14.5 0.00 2.74 2.57 71 1013.2
20260508011535 17 263 8.0 14.5 0.00 2.74 2.57 71 1013.0
20260508010041 17 279 4.8 12.9 0.00 2.74 2.57 70 1012.9
20260508004541 17 270 4.8 19.3 0.00 5.41 2.57 69 1012.5
20260508003043 18 270 11.3 22.5 0.00 5.41 2.57 67 1012.3
20260508001543 18 278 11.3 24.1 0.00 5.41 2.57 67 1012.1